�������l�o���
Date,Time,MP-1(��Sv/h),MP-2(��Sv/h),MP-3(��Sv/h),MP-4(��Sv/h),MP-5(��Sv/h),MP-6(��Sv/h),MP-7(��Sv/h),MP-8(��Sv/h),����,����(m/s),���J
2018/06/09,00:00,0.895,1.305,0.909,1.648,1.163,0.486,0.852,0.810,�k�k��,1.5,��
2018/06/09,00:10,0.894,1.306,0.908,1.647,1.160,0.487,0.853,0.809,�k��,1.5,��
2018/06/09,00:20,0.895,1.305,0.908,1.647,1.161,0.488,0.852,0.809,�k�k��,2.0,��
2018/06/09,00:30,0.895,1.304,0.905,1.646,1.162,0.487,0.849,0.809,�k�k��,1.5,��
2018/06/09,00:40,0.896,1.305,0.907,1.649,1.164,0.487,0.851,0.807,�k,0.6,��
2018/06/09,00:50,0.896,1.306,0.907,1.647,1.164,0.486,0.853,0.810,�k��,0.6,��
2018/06/09,01:00,0.897,1.306,0.907,1.646,1.163,0.485,0.851,0.809,�k�k��,0.9,��
2018/06/09,01:10,0.894,1.306,0.909,1.648,1.164,0.487,0.853,0.808,�k�k��,1.7,��
2018/06/09,01:20,0.896,1.306,0.908,1.648,1.163,0.488,0.852,0.808,�k�k��,2.6,��
2018/06/09,01:30,0.894,1.307,0.907,1.648,1.162,0.487,0.851,0.808,�k,2.3,��
2018/06/09,01:40,0.895,1.304,0.908,1.651,1.163,0.488,0.852,0.808,�k,2.3,��
2018/06/09,01:50,0.895,1.306,0.905,1.647,1.162,0.486,0.852,0.810,�k,1.4,��
2018/06/09,02:00,0.895,1.305,0.907,1.649,1.162,0.487,0.851,0.810,�k�k��,2.0,��
2018/06/09,02:10,0.897,1.305,0.907,1.647,1.162,0.487,0.851,0.809,�k,1.2,��
2018/06/09,02:20,0.896,1.306,0.907,1.648,1.162,0.487,0.852,0.810,�k��,0.9,��
2018/06/09,02:30,0.895,1.306,0.907,1.648,1.162,0.487,0.852,0.811,��,1.1,��
2018/06/09,02:40,0.895,1.306,0.906,1.645,1.162,0.488,0.852,0.809,�k��,1.2,��
2018/06/09,02:50,0.893,1.305,0.908,1.648,1.162,0.487,0.851,0.810,�k��,2.0,��
2018/06/09,03:00,0.896,1.305,0.905,1.649,1.162,0.486,0.852,0.809,�k��,2.0,��
2018/06/09,03:10,0.894,1.304,0.905,1.645,1.163,0.486,0.851,0.810,�k��,2.0,��
2018/06/09,03:20,0.895,1.303,0.909,1.649,1.163,0.488,0.852,0.808,�k�k��,1.9,��
2018/06/09,03:30,0.893,1.302,0.908,1.648,1.162,0.487,0.851,0.809,�k��,2.0,��
2018/06/09,03:40,0.895,1.302,0.908,1.647,1.160,0.487,0.852,0.807,�k��,1.7,��
2018/06/09,03:50,0.896,1.302,0.909,1.647,1.162,0.488,0.851,0.808,�k�k��,2.3,��
2018/06/09,04:00,0.894,1.305,0.906,1.649,1.162,0.488,0.852,0.809,�k,1.1,��
2018/06/09,04:10,0.897,1.303,0.908,1.647,1.163,0.487,0.852,0.808,�k�k��,1.2,��
2018/06/09,04:20,0.893,1.302,0.907,1.648,1.160,0.485,0.851,0.809,�k,1.7,��
2018/06/09,04:30,0.894,1.305,0.906,1.649,1.164,0.487,0.852,0.809,�k�k��,2.3,��
2018/06/09,04:40,0.896,1.302,0.907,1.648,1.162,0.488,0.849,0.809,�k�k��,2.3,��
2018/06/09,04:50,0.896,1.303,0.907,1.648,1.162,0.486,0.852,0.809,�k��,3.8,��
2018/06/09,05:00,0.896,1.301,0.907,1.646,1.161,0.486,0.850,0.810,�k��,4.7,��
2018/06/09,05:10,0.897,1.304,0.908,1.644,1.161,0.488,0.851,0.808,���k��,5.4,��
2018/06/09,05:20,0.896,1.303,0.909,1.647,1.163,0.487,0.852,0.809,���k��,4.1,��
2018/06/09,05:30,0.894,1.304,0.907,1.647,1.164,0.487,0.854,0.808,���k��,5.6,��
2018/06/09,05:40,0.895,1.307,0.907,1.648,1.164,0.484,0.853,0.809,�k��,7.4,��
2018/06/09,05:50,0.895,1.303,0.908,1.650,1.162,0.486,0.853,0.806,�k�k��,4.8,��
2018/06/09,06:00,0.895,1.306,0.906,1.649,1.161,0.486,0.853,0.809,�k�k��,3.3,��
2018/06/09,06:10,0.895,1.302,0.907,1.650,1.161,0.486,0.855,0.809,�k��,2.9,��
2018/06/09,06:20,0.894,1.304,0.906,1.653,1.162,0.486,0.854,0.808,�k�k��,3.6,��
2018/06/09,06:30,0.897,1.305,0.908,1.649,1.163,0.488,0.853,0.808,�k�k��,2.3,��
2018/06/09,06:40,0.894,1.302,0.906,1.649,1.160,0.487,0.854,0.811,�k�k��,2.2,��
2018/06/09,06:50,0.895,1.303,0.906,1.648,1.162,0.487,0.852,0.810,�k,3.1,��
2018/06/09,07:00,0.896,1.312,0.907,1.647,1.162,0.484,0.853,0.810,�k��,2.9,��
2018/06/09,07:10,0.895,1.304,0.908,1.650,1.159,0.486,0.852,0.809,���k��,3.7,��
2018/06/09,07:20,0.894,1.302,0.906,1.650,1.161,0.482,0.851,0.808,���k��,4.1,��
2018/06/09,07:30,0.893,1.304,0.907,1.646,1.161,0.485,0.849,0.808,���k��,2.6,��
2018/06/09,07:40,0.894,1.304,0.907,1.650,1.162,0.486,0.852,0.808,��,2.5,��
2018/06/09,07:50,0.895,1.303,0.907,1.649,1.163,0.482,0.851,0.808,��,3.5,��
2018/06/09,08:00,0.896,1.303,0.907,1.649,1.162,0.486,0.851,0.806,��,4.2,��
2018/06/09,08:10,0.893,1.305,0.907,1.651,1.162,0.486,0.851,0.807,��,3.6,��
2018/06/09,08:20,0.894,1.302,0.908,1.651,1.162,0.484,0.851,0.806,���k��,3.4,��
2018/06/09,08:30,0.896,1.304,0.905,1.649,1.164,0.485,0.850,0.806,���k��,4.5,��
2018/06/09,08:40,0.894,1.305,0.908,1.651,1.166,0.484,0.851,0.807,���k��,4.3,��
2018/06/09,08:50,0.895,1.305,0.909,1.652,1.164,0.485,0.850,0.806,���k��,4.9,��
2018/06/09,09:00,0.893,1.306,0.907,1.650,1.163,0.485,0.852,0.806,���k��,3.6,��
2018/06/09,09:10,0.893,1.304,0.907,1.655,1.166,0.484,0.851,0.807,���k��,3.2,��
2018/06/09,09:20,0.894,1.306,0.909,1.651,1.163,0.486,0.849,0.807,���k��,3.7,��
2018/06/09,09:30,0.894,1.307,0.909,1.651,1.167,0.486,0.849,0.806,��,3.4,��
2018/06/09,09:40,0.894,1.307,0.908,1.650,1.165,0.486,0.851,0.805,��,2.6,��
2018/06/09,09:50,0.892,1.306,0.905,1.651,1.163,0.485,0.851,0.807,�쓌,2.8,��
2018/06/09,10:00,0.896,1.305,0.907,1.651,1.163,0.486,0.852,0.805,���쓌,2.9,��
2018/06/09,10:10,0.893,1.303,0.905,1.651,1.164,0.486,0.853,0.806,���쓌,4.2,��
2018/06/09,10:20,0.895,1.307,0.907,1.650,1.165,0.485,0.852,0.806,���쓌,3.8,��
2018/06/09,10:30,0.892,1.305,0.909,1.652,1.164,0.486,0.851,0.806,��,3.9,��
2018/06/09,10:40,0.895,1.306,0.908,1.654,1.167,0.486,0.852,0.806,���쓌,4.4,��
2018/06/09,10:50,0.893,1.305,0.908,1.651,1.166,0.486,0.851,0.807,���쓌,3.9,��
2018/06/09,11:00,0.895,1.307,0.906,1.653,1.163,0.486,0.853,0.807,���쓌,3.7,��
2018/06/09,11:10,0.896,1.307,0.906,1.652,1.165,0.487,0.852,0.808,�쓌,3.3,��
2018/06/09,11:20,0.898,1.307,0.906,1.653,1.164,0.486,0.851,0.807,���쓌,4.4,��
2018/06/09,11:30,0.897,1.307,0.906,1.651,1.165,0.486,0.853,0.807,���쓌,3.9,��
2018/06/09,11:40,0.896,1.306,0.908,1.655,1.166,0.487,0.852,0.809,���쓌,2.2,��
2018/06/09,11:50,0.897,1.307,0.909,1.650,1.165,0.486,0.852,0.809,���쓌,2.6,��
2018/06/09,12:00,0.897,1.308,0.908,1.650,1.165,0.486,0.851,0.807,���쓌,2.3,��
2018/06/09,12:10,0.897,1.309,0.908,1.650,1.165,0.488,0.851,0.807,��,2.6,��
2018/06/09,12:20,0.897,1.306,0.908,1.651,1.167,0.488,0.853,0.809,��,2.3,��
2018/06/09,12:30,0.897,1.308,0.908,1.654,1.167,0.488,0.853,0.808,���k��,2.3,��
2018/06/09,12:40,0.896,1.310,0.909,1.650,1.169,0.488,0.853,0.808,��,3.6,��
2018/06/09,12:50,0.895,1.308,0.908,1.650,1.168,0.487,0.853,0.809,���k��,3.5,��
2018/06/09,13:00,0.898,1.310,0.909,1.652,1.167,0.486,0.852,0.808,�k��,3.1,��
2018/06/09,13:10,0.895,1.307,0.907,1.652,1.166,0.487,0.852,0.807,���k��,3.8,��
2018/06/09,13:20,0.896,1.306,0.908,1.652,1.170,0.486,0.851,0.809,���k��,4.2,��
2018/06/09,13:30,0.895,1.308,0.907,1.653,1.168,0.489,0.853,0.807,��,3.5,��
2018/06/09,13:40,0.894,1.310,0.908,1.652,1.167,0.486,0.854,0.809,���쓌,3.2,��
2018/06/09,13:50,0.896,1.310,0.910,1.652,1.170,0.487,0.852,0.807,���쓌,2.3,��
2018/06/09,14:00,0.897,1.308,0.908,1.656,1.167,0.488,0.851,0.808,���k��,2.3,��
2018/06/09,14:10,0.894,1.306,0.907,1.655,1.170,0.487,0.852,0.807,���k��,2.5,�L
2018/06/09,14:20,0.896,1.308,0.909,1.651,1.170,0.487,0.854,0.807,�k��,2.2,��
2018/06/09,14:30,0.895,1.309,0.907,1.652,1.166,0.486,0.854,0.807,���k��,2.3,��
2018/06/09,14:40,0.896,1.310,0.910,1.654,1.168,0.489,0.854,0.807,�k�k��,3.5,��
2018/06/09,14:50,0.894,1.309,0.908,1.656,1.170,0.486,0.852,0.807,�k�k��,5.8,��
2018/06/09,15:00,0.892,1.311,0.909,1.653,1.169,0.486,0.852,0.807,�k�k��,7.1,��
2018/06/09,15:10,0.894,1.309,0.909,1.655,1.169,0.486,0.852,0.806,�k�k��,6.2,�L
2018/06/09,15:20,0.893,1.308,0.907,1.652,1.165,0.485,0.851,0.807,�k�k��,6.2,�L
2018/06/09,15:30,0.895,1.305,0.907,1.650,1.166,0.484,0.850,0.808,�k�k��,6.4,�L
2018/06/09,15:40,0.893,1.307,0.907,1.651,1.166,0.485,0.849,0.807,�k�k��,5.7,��
2018/06/09,15:50,0.891,1.309,0.908,1.651,1.166,0.485,0.849,0.806,�k�k��,6.2,��
2018/06/09,16:00,0.892,1.307,0.905,1.652,1.167,0.483,0.851,0.806,�k�k��,6.2,��
2018/06/09,16:10,0.891,1.307,0.906,1.653,1.169,0.486,0.849,0.806,�k,4.2,��
2018/06/09,16:20,0.893,1.308,0.906,1.652,1.167,0.483,0.849,0.805,�k,5.0,��
2018/06/09,16:30,0.893,1.307,0.906,1.654,1.166,0.482,0.849,0.806,�k,5.3,��
2018/06/09,16:40,0.893,1.305,0.907,1.654,1.167,0.482,0.850,0.807,�k�k��,4.2,�L
2018/06/09,16:50,0.893,1.308,0.909,1.655,1.166,0.481,0.848,0.806,�k,4.9,�L
2018/06/09,17:00,0.889,1.310,0.907,1.654,1.167,0.483,0.849,0.807,�k,5.1,��
2018/06/09,17:10,0.891,1.307,0.907,1.651,1.166,0.481,0.851,0.807,�k,4.6,��
2018/06/09,17:20,0.891,1.306,0.906,1.651,1.165,0.481,0.850,0.806,�k,4.3,��
2018/06/09,17:30,0.893,1.307,0.909,1.654,1.167,0.483,0.850,0.807,�k,3.7,��
2018/06/09,17:40,0.892,1.306,0.908,1.655,1.167,0.481,0.850,0.807,�k�k��,3.9,��
2018/06/09,17:50,0.893,1.308,0.908,1.653,1.164,0.484,0.850,0.807,�k,4.3,��
2018/06/09,18:00,0.891,1.307,0.909,1.654,1.167,0.481,0.849,0.805,�k,4.6,��
2018/06/09,18:10,0.892,1.307,0.909,1.654,1.166,0.483,0.851,0.805,�k,4.9,��
2018/06/09,18:20,0.892,1.304,0.909,1.652,1.167,0.481,0.851,0.807,�k,2.9,��
2018/06/09,18:30,0.891,1.308,0.907,1.654,1.164,0.483,0.850,0.808,�k,3.5,��
2018/06/09,18:40,0.891,1.308,0.908,1.653,1.167,0.481,0.850,0.807,�k,3.8,��
2018/06/09,18:50,0.891,1.306,0.907,1.652,1.167,0.482,0.848,0.808,�k�k��,3.9,��
2018/06/09,19:00,0.892,1.307,0.909,1.652,1.164,0.484,0.850,0.808,�k�k��,3.5,��
2018/06/09,19:10,0.895,1.306,0.907,1.656,1.167,0.483,0.849,0.806,�k�k��,3.5,��
2018/06/09,19:20,0.892,1.306,0.908,1.652,1.166,0.481,0.848,0.807,�k�k��,3.9,��
2018/06/09,19:30,0.891,1.306,0.908,1.652,1.167,0.482,0.850,0.808,�k�k��,3.9,��
2018/06/09,19:40,0.892,1.306,0.908,1.653,1.168,0.481,0.850,0.808,�k�k��,3.7,��
2018/06/09,19:50,0.893,1.306,0.907,1.653,1.164,0.482,0.851,0.809,�k�k��,3.5,�L
2018/06/09,20:00,0.893,1.304,0.908,1.655,1.167,0.482,0.850,0.807,�k,3.8,�L
2018/06/09,20:10,0.892,1.306,0.908,1.654,1.168,0.480,0.850,0.809,�k�k��,3.9,�L
2018/06/09,20:20,0.890,1.307,0.909,1.654,1.165,0.481,0.851,0.806,�k�k��,4.0,�L
2018/06/09,20:30,0.890,1.304,0.908,1.653,1.168,0.481,0.849,0.807,�k�k��,3.6,�L
2018/06/09,20:40,0.890,1.307,0.908,1.654,1.168,0.481,0.849,0.807,�k�k��,3.5,�L
2018/06/09,20:50,0.894,1.307,0.908,1.654,1.168,0.482,0.850,0.809,�k�k��,3.6,�L
2018/06/09,21:00,0.891,1.304,0.907,1.656,1.166,0.482,0.851,0.809,�k�k��,3.3,�L
2018/06/09,21:10,0.891,1.306,0.906,1.656,1.167,0.481,0.851,0.809,�k�k��,3.5,��
2018/06/09,21:20,0.893,1.307,0.907,1.652,1.165,0.482,0.849,0.807,�k,3.4,�L
2018/06/09,21:30,0.891,1.311,0.905,1.652,1.164,0.483,0.850,0.808,�k,3.3,��
2018/06/09,21:40,0.891,1.310,0.907,1.651,1.167,0.482,0.849,0.809,�k,3.5,��
2018/06/09,21:50,0.893,1.306,0.907,1.651,1.165,0.481,0.851,0.808,�k,3.2,�L
2018/06/09,22:00,0.893,1.308,0.907,1.651,1.165,0.480,0.848,0.806,�k,2.8,��
2018/06/09,22:10,0.892,1.307,0.906,1.652,1.168,0.483,0.850,0.808,�k,3.2,��
2018/06/09,22:20,0.893,1.308,0.907,1.652,1.165,0.482,0.851,0.809,�k,3.2,�L
2018/06/09,22:30,0.892,1.305,0.908,1.651,1.165,0.480,0.850,0.807,�k,2.6,�L
2018/06/09,22:40,0.892,1.306,0.908,1.652,1.165,0.482,0.851,0.807,�k,3.2,�L
2018/06/09,22:50,0.893,1.307,0.906,1.650,1.162,0.481,0.849,0.808,�k,3.0,�L
2018/06/09,23:00,0.893,1.304,0.907,1.651,1.164,0.481,0.849,0.806,�k,3.1,��
2018/06/09,23:10,0.890,1.304,0.909,1.650,1.166,0.481,0.848,0.807,�k,3.2,��
2018/06/09,23:20,0.891,1.303,0.907,1.653,1.166,0.480,0.849,0.809,�k,3.5,��
2018/06/09,23:30,0.892,1.305,0.904,1.653,1.167,0.481,0.850,0.808,�k,2.8,�L
2018/06/09,23:40,0.892,1.307,0.906,1.651,1.164,0.482,0.849,0.807,�k,3.4,�L
2018/06/09,23:50,0.893,1.306,0.905,1.651,1.166,0.482,0.847,0.808,�k�k��,2.5,�L
